COSMOS 985

Satellite information

Favourite Embed

Satellite Type and Status

PAYLOADIN ORBIT

Key statistics

Satellite COSMOS 985 at a glance.

Uptime

17498

Days in orbit

Revolutions

≈ 13.8

Per day

Orbit

LEO

Low Earth Orbit

Inclination

82.9

Latest

Satellite identification and parameters

Extended collection of information and parameters for COSMOS 985.

Object identification

Identified? True

Debris? False

Object name: COSMOS 985

International designator: 1978-007A

Object number (NORAD): 10599

Object ID (CCSDS): 10599

Country: COMMONWEALTH OF INDEPENDENT STATES (CIS)

Current information (Y/N): Y

RCS size: LARGE

Orbital parameters

Period: 104.582 minutes

Inclination: 82.9399 deg

SMA: 7352.995 km

Apoapsis: 1013.648 km

Periapsis: 936.073 km

RAAN: 166.4099 deg

Eccentricy: 0.00527505

Argument of periapsis: 354.7657 deg

Mean anomaly: 5.2941 deg

Mean motion: 13.76912494 rev/day

Mean motion (dot): 0.00000081 rev/day2

B* drag term: 0.000066247261 1/REarth

Two-line elements (TLE)

Creation date: Dec. 14, 2025, 3:07 a.m.

Reference frame: TEME

Reference center: EARTH

Epoch: Dec. 13, 2025, 12:31 p.m. UTC

TLE line 0: 0 COSMOS 985

TLE line 1: 1 10599U 78007A 25347.52168089 .00000081 00000-0 66247-4 0 9994

TLE line 2: 2 10599 82.9399 166.4099 0052751 354.7657 5.2941 13.76912494406320

Live tracking on map

Real-time ground track for satellite COSMOS 985.

In-orbit conjunctions

A list of the most updated potential collisions computed for object COSMOS 985.

Target Orbit TCA Probability of collision Miss distance Type
CZ-6A DEB LEO 2025-02-27 11:12:05 0.0002509975 52.0 (m) DEBRIS

Associated space launch

Navigation satellite providing location information for the Tsiklon-B navigation system

COSMOS 985 was lifted into orbit during the mission ‘Kosmos-3M | Parus 12’, on board a Kosmos-3M space rocket.

The launch took place on Jan. 17, 1978, 3:26 a.m. from 132/1 (132L).

For more information about the launch, click the button.

Launch to space Kosmos-3M | Parus 12
Kosmos-3M | Parus 12

Agency: N/A

Status: Launch Successful

Launch date: Jan. 17, 1978, 3:26 a.m. UTC

Rocket: Kosmos-3M

Launch pad: 132/1 (132L)

Location: Plesetsk Cosmodrome, Russian Federation

...

Latest news about this satellite

There are no fresh news available about this satellite. Check back as we update our databases every day.


Newsletter sign-up

Weekly statistics, charts and insights to help you stay on top of the space industry.